Deering, AK

1:36 PM AKST on November 22, 2017 (GMT -0900)
Deering (New)

Weather History for PADE - December, 2012

Change the Weather History Date:

Saturday, December 1, 2012

  Actual Average (PAOT) Record (PAOT)
Temperature  
Mean Temperature 8 °F -  
Max Temperature 15 °F 4 °F 34 °F (2007)
Min Temperature 1 °F -8 °F -40 °F (1935)
Degree Days  
Heating Degree Days 57    
Moisture  
Dew Point 5 °F    
Average Humidity 86    
Maximum Humidity 92    
Minimum Humidity 79    
Precipitation  
Precipitation 0.01 in - - ()
Sea Level Pressure  
Sea Level Pressure 30.01 in    
Wind  
Wind Speed 5 mph (WSW)    
Max Wind Speed 21 mph    
Max Gust Speed -    
Visibility 7 miles    
Events Snow    
Averages and records for this station are not official NWS values.
T = Trace of Precipitation, MM = Missing Value Source: NWS Daily Summary

Daily Weather History Graph

Daily Weather History Graph

Search for Another Location

Airport or City:

Trip Planner

Search our weather history database for the weather conditions in past years. The results will help you decide how hot, cold, wet, or windy it might be!

Date:

Astronomy

Dec. 01, 2012 Rise Set
Actual Time 11:42 AM AKST 3:38 PM AKST
Civil Twilight 10:16 AM AKST 5:03 PM AKST
Nautical Twilight 9:03 AM AKST 6:16 PM AKST
Astronomical Twilight 8:00 AM AKST 7:20 PM AKST
Moon 7:19 PM AKST (12/1) 1:27 PM AKST (12/1)
Length of Visible Light 6h 47m
Length of Day
3h 56m
Waning Gibbous, 91% of the Moon is Illuminated
Dec 1
Waning Gibbous
Dec 6
Last Quarter
Dec 12
New
Dec 19
First Quarter
Dec 28
Full

Hourly Weather History & Observations

Time (AKST) Temp. Windchill Dew Point Humidity Pressure Visibility Wind Dir Wind Speed Gust Speed Precip Events Conditions
12:48 AM 10.4 °F - 5.0 °F 79% 30.07 in 2.5 mi Calm Calm - 0.00 in Snow Light Snow
12:53 AM 10.0 °F - 6.1 °F 84% 30.07 in 2.0 mi Calm Calm - 0.00 in Snow Light Snow
1:00 AM 10.4 °F - 6.8 °F 85% 30.07 in 2.0 mi Calm Calm - 0.01 in Snow Light Snow
1:32 AM 10.4 °F - 6.8 °F 85% 30.07 in 3.0 mi Calm Calm - 0.01 in Snow Light Snow
1:49 AM 10.4 °F - 6.8 °F 85% 30.07 in 7.0 mi Calm Calm - 0.01 in Snow Light Snow
1:53 AM 10.0 °F - 6.1 °F 84% 30.07 in 5.0 mi Calm Calm - 0.01 in Snow Light Snow
2:07 AM 10.4 °F - 6.8 °F 85% 30.07 in 2.5 mi Calm Calm - 0.00 in Snow Light Snow
2:22 AM 10.4 °F - 6.8 °F 85% 30.06 in 3.0 mi Calm Calm - 0.01 in Snow Light Snow
2:31 AM 10.4 °F - 6.8 °F 85% 30.06 in 2.5 mi Calm Calm - 0.01 in Snow Light Snow
2:49 AM 10.4 °F - 6.8 °F 85% 30.05 in 4.0 mi Calm Calm - 0.01 in Snow Light Snow
3:53 AM 8.1 °F 1.4 °F 5.0 °F 87% 30.05 in 8.0 mi WSW 3.5 mph - 0.00 in Snow Light Snow
4:53 AM 8.1 °F -0.5 °F 3.9 °F 83% 30.04 in 7.0 mi WSW 4.6 mph - 0.00 in Snow Light Snow
5:53 AM 6.1 °F -0.9 °F 3.0 °F 87% 30.04 in 8.0 mi SW 3.5 mph - 0.00 in Snow Light Snow
6:53 AM 10.9 °F -1.8 °F 7.0 °F 84% 30.03 in 5.0 mi West 9.2 mph - 0.00 in Snow Light Snow
7:53 AM 12.9 °F 0.7 °F 9.0 °F 84% 30.02 in 10.0 mi West 9.2 mph - 0.00 in   Overcast
8:53 AM 12.9 °F 0.7 °F 10.0 °F 88% 30.02 in 10.0 mi West 9.2 mph - N/A   Overcast
9:51 AM 10.4 °F -0.4 °F 8.6 °F 92% 30.01 in 10.0 mi WSW 6.9 mph - N/A   Overcast
9:53 AM 10.9 °F 0.2 °F 8.1 °F 88% 30.01 in 10.0 mi WSW 6.9 mph - N/A   Overcast
10:45 AM 12.2 °F 1.7 °F 8.6 °F 85% 30.01 in 10.0 mi WSW 6.9 mph - N/A   Overcast
10:53 AM 10.9 °F 1.4 °F 8.1 °F 88% 30.01 in 10.0 mi WSW 5.8 mph - N/A   Overcast
11:53 AM 15.1 °F 1.8 °F 12.0 °F 88% 30.01 in 7.0 mi West 11.5 mph - N/A   Overcast
12:51 PM 12.2 °F -2.5 °F 8.6 °F 85% 29.99 in 10.0 mi West 12.7 mph - N/A   Scattered Clouds
12:53 PM 12.0 °F -2.7 °F 9.0 °F 88% 30.00 in 10.0 mi West 12.7 mph - N/A   Scattered Clouds
2:01 PM 8.6 °F -1.3 °F 5.0 °F 85% 29.99 in 9.0 mi SW 5.8 mph - N/A   Partly Cloudy
2:53 PM 5.0 °F -4.1 °F 1.9 °F 87% 30.00 in 10.0 mi SSW 4.6 mph - N/A   Scattered Clouds
4:14 PM 3.2 °F -10.3 °F -0.4 °F 85% 29.98 in 0.8 mi SSW 8.1 mph - N/A   Mist
4:35 PM 3.2 °F -10.3 °F 1.4 °F 92% 29.98 in 2.0 mi SSW 8.1 mph - N/A   Overcast
4:45 PM 3.2 °F -10.3 °F -0.4 °F 85% 29.98 in 3.0 mi WSW 8.1 mph - N/A   Overcast
4:53 PM 7.0 °F -9.8 °F 3.0 °F 84% 29.99 in 6.0 mi WSW 13.8 mph - N/A   Overcast
5:53 PM 7.0 °F -7.5 °F 3.9 °F 87% 29.99 in 8.0 mi WSW 10.4 mph - 0.00 in   Overcast
6:28 PM 5.0 °F -5.6 °F 1.4 °F 85% 29.97 in 10.0 mi SW 5.8 mph - N/A   Scattered Clouds
6:53 PM 1.0 °F -11.7 °F -2.0 °F 87% 29.98 in 8.0 mi WSW 6.9 mph - N/A   Clear
7:53 PM 8.1 °F -10.2 °F 3.9 °F 83% 29.98 in 10.0 mi West 17.3 mph - N/A   Clear
8:30 PM 6.8 °F -13.4 °F 3.2 °F 85% 29.98 in 8.0 mi West 20.7 mph - N/A   Scattered Clouds
8:39 PM 6.8 °F -12.9 °F 3.2 °F 85% 29.98 in 6.0 mi West 19.6 mph - N/A   Mostly Cloudy
8:53 PM 7.0 °F -12.6 °F 3.0 °F 84% 29.98 in 8.0 mi WSW 19.6 mph - N/A   Overcast
9:53 PM 5.0 °F -14.2 °F 1.9 °F 87% 29.97 in 7.0 mi WSW 17.3 mph - 0.00 in   Mostly Cloudy
10:08 PM 5.0 °F -13.6 °F 1.4 °F 85% 29.97 in 10.0 mi WSW 16.1 mph - N/A   Scattered Clouds
10:53 PM 5.0 °F -14.7 °F 1.0 °F 84% 29.97 in 10.0 mi West 18.4 mph - N/A   Clear
11:04 PM 5.0 °F -14.7 °F 1.4 °F 85% 29.97 in 8.0 mi West 18.4 mph - N/A   Scattered Clouds
11:24 PM 5.0 °F -15.2 °F 1.4 °F 85% 29.97 in 7.0 mi West 19.6 mph - N/A   Mostly Cloudy
11:53 PM 5.0 °F -14.7 °F 1.0 °F 84% 29.98 in 10.0 mi West 18.4 mph - N/A   Clear